Regional Weather Roundup
Issued by NWS

Home | Current Version | Previous Version | Graphics & Text | Print | Product List | Glossary On
Versions: 1 2 3 4 5 6 7 8 9 10 11 12 13 14 15 16 17 18 19 20 21 22 23 24 25 26 27 28 29 30 31 32 33 34 35 36 37 38 39 40 41 42 43 44 45 46 47 48 49 50
000
ASUS43 KLSX 221759
RWRMO

WEATHER SUMMARY FOR MISSOURI
NATIONAL WEATHER SERVICE SPRINGFIELD MO
100 PM CDT TUE JUL 22 2014

NOTE: "FAIR" INDICATES FEW OR NO CLOUDS BELOW 12,000 FEET WITH NO
       SIGNIFICANT WEATHER AND/OR OBSTRUCTIONS TO VISIBILITY.
       CURRENT SKY AND/OR WEATHER CONDITIONS ARE NOT AVAILABLE FOR
       CHILLICOTHE AND FARMINGTON.

MOZ001>031-035>038-043-044-053-054-221900-
...NORTHERN AND WESTERN MISSOURI...

CITY           SKY/WX    TMP DP  RH WIND       PRES   REMARKS
KANSAS CTY INT MOSUNNY   90  77  65 SW9       30.03F HX 103
6HR MIN TEMP:  77; 6HR MAX TEMP:  90;

KANSAS C DTWN  SUNNY     94  75  54 SW9       30.01F HX 105
6HR MIN TEMP:  79; 6HR MAX TEMP:  94;

LEE`S SUMMIT   SUNNY     90  77  65 SW13      30.05S HX 103
6HR MIN TEMP:  75; 6HR MAX TEMP:  90;

ST JOSEPH      MOSUNNY   91  77  63 SW10      30.00  HX 104
6HR MIN TEMP:  77; 6HR MAX TEMP:  91;

CHILLICOTHE      N/A     90  77  65 S6        30.01F HX 103
6HR MIN TEMP:  76; 6HR MAX TEMP:  91;

KIRKSVILLE     MOSUNNY   87  77  72 S14       30.03F HX  99
6HR MIN TEMP:  75; 6HR MAX TEMP:  87;


$$
MOZ066>068-077>081-088>096-101>105-221900-
...SOUTHWEST MISSOURI...

CITY           SKY/WX    TMP DP  RH WIND       PRES   REMARKS
SPRINGFIELD    PTSUNNY   87  74  64 SW8       30.11F HX  95
6HR MIN TEMP:  70; 6HR MAX TEMP:  88;

JOPLIN         SUNNY     91  73  55 W13       30.10S HX  99
6HR MIN TEMP:  72; 6HR MAX TEMP:  92;


$$
MOZ032>034-039>042-045>050-055>058-069>072-221900-
...CENTRAL MISSOURI...

CITY           SKY/WX    TMP DP  RH WIND       PRES   REMARKS
COLUMBIA       PTSUNNY   90  76  63 S3        30.07S HX 101
6HR MIN TEMP:  69; 6HR MAX TEMP:  90;

JEFFERSON CITY PTSUNNY   88  75  65 MISG      30.05S HX  97
6HR MIN TEMP:  69; 6HR MAX TEMP:  89;

ROLLA          PTSUNNY   89  72  56 SW5       30.09R HX  96
6HR MIN TEMP:  70; 6HR MAX TEMP:  89;

SEDALIA        MOSUNNY   90  76  63 SW8       30.06S HX 101
6HR MIN TEMP:  72; 6HR MAX TEMP:  91;

OSAGE BEACH    MOSUNNY   90  73  58 SW5       30.07F HX  98

$$
MOZ051-052-059>065-221900-
...EAST CENTRAL MISSOURI...

CITY           SKY/WX    TMP DP  RH WIND       PRES   REMARKS
ST LOUIS INTL  CLOUDY    90  69  50 VRB5      30.07F HX  94
6HR MIN TEMP:  74; 6HR MAX TEMP:  90;

SPIRIT OF STL  CLOUDY    89  70  53 W6        30.05F HX  94
6HR MIN TEMP:  69; 6HR MAX TEMP:  89;

ST CHARLES     CLOUDY    85  70  60 VRB3      30.04F
6HR MIN TEMP:  68; 6HR MAX TEMP:  86; 6HR PCP:  0.01;


$$
MOZ072>076-082>087-097>100-106>115-221900-
...SOUTH CENTRAL AND SOUTHEAST MISSOURI...

CITY           SKY/WX    TMP DP  RH WIND       PRES   REMARKS
CAPE GIRARDEAU SUNNY     87  68  52 W9        30.09F HX  90
6HR MIN TEMP:  65; 6HR MAX TEMP:  87;

FARMINGTON     MOSUNNY   84  70  61 W3        30.13S
6HR MIN TEMP:  63; 6HR MAX TEMP:  84;

POPLAR BLUFF   SUNNY     85  64  49 S7        30.09F
6HR MIN TEMP:  65; 6HR MAX TEMP:  86;

WEST PLAINS    SUNNY     84  70  62 CALM      30.13F
6HR MIN TEMP:  66; 6HR MAX TEMP:  85;


$$



USA.gov is the U.S. government's official web portal to all federal, state and local government web resources and services.